TimeEDT,TemperatureF,Dew PointF,Humidity,Sea Level PressureIn,VisibilityMPH,Wind Direction,Wind SpeedMPH,Gust SpeedMPH,PrecipitationIn,Events,Conditions,WindDirDegrees,DateUTC
12:54 AM,37.0,34.0,89,30.04,-9999.0,North,-9999.0,-,N/A,,Unknown,0,2013-05-14 04:54:00
1:54 AM,35.1,33.1,92,30.03,-9999.0,North,-9999.0,-,N/A,,Unknown,0,2013-05-14 05:54:00
2:54 AM,33.1,33.1,100,30.04,-9999.0,North,-9999.0,-,N/A,,Unknown,0,2013-05-14 06:54:00
3:54 AM,32.0,32.0,100,30.05,-9999.0,North,-9999.0,-,N/A,,Unknown,0,2013-05-14 07:54:00
4:54 AM,32.0,30.9,96,30.06,-9999.0,North,-9999.0,-,N/A,,Unknown,0,2013-05-14 08:54:00
5:54 AM,30.9,30.9,100,30.07,-9999.0,North,-9999.0,-,N/A,,Unknown,0,2013-05-14 09:54:00
6:54 AM,32.0,32.0,100,30.08,-9999.0,North,-9999.0,-,N/A,,Unknown,0,2013-05-14 10:54:00
7:54 AM,33.1,32.0,96,30.09,-9999.0,North,-9999.0,-,N/A,,Unknown,0,2013-05-14 11:54:00
8:54 AM,41.0,28.9,62,30.08,-9999.0,North,-9999.0,-,N/A,,Unknown,0,2013-05-14 12:54:00
9:54 AM,46.0,25.0,44,30.06,-9999.0,North,-9999.0,-,N/A,,Unknown,0,2013-05-14 13:54:00
10:54 AM,48.0,21.9,36,30.04,-9999.0,North,-9999.0,-,N/A,,Unknown,0,2013-05-14 14:54:00
11:54 AM,51.1,23.0,33,30.03,-9999.0,North,-9999.0,-,N/A,,Unknown,0,2013-05-14 15:54:00
12:54 PM,54.0,23.0,30,30.01,-9999.0,North,-9999.0,-,N/A,,Unknown,0,2013-05-14 16:54:00
1:54 PM,54.0,21.9,29,30.01,-9999.0,North,-9999.0,-,N/A,,Unknown,0,2013-05-14 17:54:00
2:54 PM,53.1,21.0,29,30.01,-9999.0,North,-9999.0,-,N/A,,Unknown,0,2013-05-14 18:54:00
3:54 PM,53.1,21.0,29,29.99,-9999.0,North,-9999.0,-,N/A,,Unknown,0,2013-05-14 19:54:00
4:54 PM,54.0,21.9,29,29.98,-9999.0,North,-9999.0,-,N/A,,Unknown,0,2013-05-14 20:54:00
5:54 PM,53.1,21.9,30,29.97,-9999.0,North,-9999.0,-,N/A,,Unknown,0,2013-05-14 21:54:00
6:54 PM,52.0,21.0,30,29.98,-9999.0,North,-9999.0,-,N/A,,Unknown,0,2013-05-14 22:54:00
7:54 PM,50.0,21.9,33,29.99,-9999.0,North,-9999.0,-,N/A,,Unknown,0,2013-05-14 23:54:00
8:54 PM,45.0,28.9,53,30.01,-9999.0,North,-9999.0,-,N/A,,Unknown,0,2013-05-15 00:54:00
9:54 PM,39.9,28.9,65,30.03,-9999.0,North,-9999.0,-,N/A,,Unknown,0,2013-05-15 01:54:00
10:54 PM,37.0,28.9,73,30.03,-9999.0,North,-9999.0,-,N/A,,Unknown,0,2013-05-15 02:54:00
11:54 PM,34.0,28.0,79,30.03,-9999.0,North,-9999.0,-,N/A,,Unknown,0,2013-05-15 03:54:00